START_TIME,STEP,MOV.,H8,t_acc.,H43,t_acc.,M25,t_acc.,H9,t_acc.
1979-07-30 21:00:28.510 ,0,0,0.,12.0,0.,12.0,0.,12.0,0.,12.0
1979-07-30 21:00:40.510 ,0,0,0.,12.0,0.,12.0,0.,12.0,0.,12.0
1979-07-30 21:00:52.510 ,0,0,0.,12.0,0.,12.0,0.,12.0,0.,12.0
1979-07-30 21:01:04.510 ,0,0,0.,12.0,0.,12.0,0.,12.0,0.,12.0
1979-07-30 21:01:16.510 ,0,0,0.,12.0,0.,12.0,0.,12.0,0.,12.0
1979-07-30 21:01:28.510 ,0,0,0.,12.0,0.,12.0,0.,12.0,0.,12.0
1979-07-30 21:01:40.510 ,1,0,0.,12.0,0.,12.0,0.,12.0,0.,12.0
1979-07-30 21:01:52.510 ,1,0,0.,12.0,0.,12.0,0.,12.0,0.,12.0
1979-07-30 21:02:04.510 ,1,0,0.,12.0,0.,12.0,0.,12.0,0.,12.0
1979-07-30 21:02:16.510 ,1,0,0.,12.0,0.,12.0,0.,12.0,0.,12.0
1979-07-30 21:02:28.510 ,2,0,0.,12.0,0.,12.0,0.,12.0,0.,12.0
1979-07-30 21:02:40.510 ,2,0,0.,12.0,0.,12.0,0.,12.0,0.,12.0
1979-07-30 21:02:52.510 ,2,0,0.,12.0,0.,12.0,0.,12.0,0.,12.0
1979-07-30 21:03:04.510 ,2,0,0.,12.0,0.,12.0,0.,12.0,0.,12.0
1979-07-30 21:03:16.510 ,3,0,0.,12.0,0.,12.0,0.,12.0,0.,12.0
1979-07-30 21:03:28.510 ,3,0,0.,12.0,0.,12.0,0.,12.0,0.,12.0
1979-07-30 21:03:40.510 ,3,0,0.,12.0,0.,12.0,0.,12.0,0.,12.0
1979-07-30 21:03:52.510 ,3,0,0.,12.0,0.,12.0,0.,12.0,0.,12.0
1979-07-30 21:04:04.510 ,4,0,0.,12.0,0.,12.0,0.,12.0,0.,12.0
1979-07-30 21:04:16.510 ,4,0,0.,12.0,0.,12.0,0.,12.0,0.,12.0
1979-07-30 21:04:28.510 ,4,0,0.,12.0,0.,12.0,0.,12.0,0.,12.0
1979-07-30 21:04:40.510 ,4,0,0.,12.0,0.,12.0,0.,12.0,0.,12.0
1979-07-30 21:04:52.510 ,0,0,,0,,0,,0,,0
1979-07-30 21:05:04.510 ,0,0,,0,,0,,0,,0
1979-07-30 21:05:16.510 ,0,0,,0,,0,,0,,0
1979-07-30 21:05:28.510 ,0,0,,0,,0,,0,,0
1979-07-30 21:07:50.110 ,0,0,,0,,0,,0,,0
1979-07-30 21:08:02.110 ,0,0,0.,12.0,0.,12.0,0.,12.0,0.,12.0
1979-07-30 21:08:04.510 ,4,1,0.,12.0,0.,12.0,0.,12.0,0.,12.0
1979-07-30 21:08:16.510 ,4,1,0.,12.0,0.,12.0,0.,12.0,0.,12.0
1979-07-30 21:08:28.510 ,7,1,0.,12.0,0.,12.0,0.,12.0,0.,12.0
1979-07-30 21:08:40.510 ,7,1,0.,12.0,0.,12.0,0.,12.0,0.,12.0
1979-07-30 21:08:52.510 ,3,1,0.,12.0,0.,12.0,0.,12.0,0.,12.0
1979-07-30 21:09:04.510 ,3,1,0.,12.0,0.,12.0,0.,12.0,0.,12.0
1979-07-30 21:09:16.510 ,0,1,0.,12.0,0.,12.0,0.,12.0,0.,12.0
1979-07-30 21:09:28.510 ,0,1,0.,12.0,0.,12.0,0.,12.0,0.,12.0
1979-07-30 21:09:40.510 ,4,1,0.,12.0,0.,12.0,0.,12.0,0.,12.0
1979-07-30 21:09:52.510 ,4,1,0.,12.0,0.,12.0,0.,12.0,0.,12.0
1979-07-30 21:10:04.510 ,7,1,0.,12.0,0.,12.0,0.,12.0,0.,12.0
1979-07-30 21:10:16.510 ,7,1,0.,12.0,0.,12.0,0.,12.0,0.,12.0
1979-07-30 21:10:28.510 ,3,1,0.,12.0,0.,12.0,0.,12.0,0.,12.0
1979-07-30 21:10:40.510 ,3,1,0.,12.0,0.,12.0,0.,12.0,0.,12.0
1979-07-30 21:10:52.510 ,0,1,0.,12.0,0.,12.0,0.,12.0,0.,12.0
1979-07-30 21:11:04.510 ,0,1,0.,12.0,0.,12.0,0.,12.0,0.,12.0
1979-07-30 21:11:16.510 ,4,1,0.,12.0,0.,12.0,0.,12.0,0.,12.0
1979-07-30 21:11:28.510 ,4,1,0.,12.0,0.,12.0,0.,12.0,0.,12.0
1979-07-30 21:11:40.510 ,7,1,0.,12.0,0.,12.0,0.,12.0,0.,12.0
1979-07-30 21:11:52.510 ,7,1,0.,12.0,0.,12.0,0.,12.0,0.,12.0
1979-07-30 21:12:04.510 ,3,1,0.,12.0,0.,12.0,0.,12.0,0.,12.0
1979-07-30 21:12:16.510 ,3,1,0.,12.0,0.,12.0,0.,12.0,0.,12.0
1979-07-30 21:12:28.510 ,0,1,0.,12.0,0.,12.0,0.,12.0,0.,12.0
1979-07-30 21:12:40.510 ,0,1,0.,12.0,0.,12.0,0.,12.0,0.,12.0
1979-07-30 21:12:52.510 ,4,1,0.,12.0,0.,12.0,0.,12.0,0.,12.0
1979-07-30 21:13:04.510 ,4,1,0.,12.0,0.,12.0,0.,12.0,0.,12.0
1979-07-30 21:13:16.510 ,7,1,0.,12.0,0.,12.0,0.,12.0,0.,12.0
1979-07-30 21:13:28.510 ,7,1,0.,12.0,0.,12.0,0.,12.0,0.,12.0
1979-07-30 21:13:40.510 ,3,1,0.,12.0,0.,12.0,0.,12.0,0.,12.0
1979-07-30 21:13:52.510 ,3,1,0.,12.0,0.,12.0,0.,12.0,0.,12.0
1979-07-30 21:14:04.510 ,0,1,0.,12.0,0.,12.0,0.,12.0,0.,12.0
1979-07-30 21:14:16.510 ,0,1,0.,12.0,0.,12.0,0.,12.0,0.,12.0
1979-07-30 21:14:28.510 ,4,1,0.,12.0,0.,12.0,0.,12.0,0.,12.0
1979-07-30 21:14:40.510 ,4,1,0.,12.0,0.,12.0,0.,12.0,0.,12.0
1979-07-30 21:14:52.510 ,7,1,0.,12.0,0.,12.0,0.,12.0,0.,12.0
1979-07-30 21:15:04.510 ,7,1,0.,12.0,0.,12.0,0.,12.0,0.,12.0
1979-07-30 21:15:16.510 ,3,1,0.,12.0,0.,12.0,0.,12.0,0.,12.0
1979-07-30 21:15:28.510 ,3,1,0.,12.0,0.,12.0,0.,12.0,0.,12.0
1979-07-30 21:15:40.510 ,0,1,0.,12.0,0.,12.0,0.,12.0,0.,12.0
1979-07-30 21:15:52.510 ,0,1,0.,12.0,0.,12.0,0.,12.0,0.,12.0
1979-07-30 21:16:04.510 ,4,1,0.,12.0,0.,12.0,0.,12.0,0.,12.0
1979-07-30 21:16:16.510 ,4,1,0.,12.0,0.,12.0,0.,12.0,0.,12.0
1979-07-30 21:16:28.510 ,7,1,0.,12.0,0.,12.0,0.,12.0,0.,12.0
1979-07-30 21:16:40.510 ,7,1,0.,12.0,0.,12.0,0.,12.0,0.,12.0
1979-07-30 21:16:52.510 ,3,1,0.,12.0,0.,12.0,0.,12.0,0.,12.0
1979-07-30 21:17:04.510 ,3,1,0.,12.0,0.,12.0,0.,12.0,0.,12.0
1979-07-30 21:17:16.510 ,0,1,0.,12.0,0.,12.0,0.,12.0,0.,12.0
1979-07-30 21:17:28.510 ,0,1,0.,12.0,0.,12.0,0.,12.0,0.,12.0
1979-07-30 21:17:40.510 ,0,0,0.,12.0,0.,12.0,0.,12.0,0.,12.0
1979-07-30 21:17:52.510 ,0,0,0.,12.0,0.,12.0,0.,12.0,0.,12.0
1979-07-30 21:18:04.510 ,0,0,0.,12.0,0.,12.0,0.,12.0,0.,12.0
1979-07-30 21:18:16.510 ,0,0,0.,12.0,0.,12.0,0.,12.0,0.,12.0
1979-07-30 21:18:28.510 ,5,0,0.,12.0,0.,12.0,0.,12.0,0.,12.0
1979-07-30 21:18:40.510 ,5,0,0.,12.0,0.,12.0,0.,12.0,0.,12.0
1979-07-30 21:18:52.510 ,5,0,0.,12.0,0.,12.0,0.,12.0,0.,12.0
1979-07-30 21:19:04.510 ,5,0,0.,12.0,0.,12.0,0.,12.0,0.,12.0
1979-07-30 21:19:16.510 ,4,0,0.,12.0,0.,12.0,0.,12.0,0.,12.0
1979-07-30 21:19:28.510 ,4,0,0.,12.0,0.,12.0,0.,12.0,0.,12.0
1979-07-30 21:19:40.510 ,4,0,0.,12.0,0.,12.0,0.,12.0,0.,12.0
1979-07-30 21:19:52.510 ,4,0,0.,12.0,0.,12.0,0.,12.0,0.,12.0
1979-07-30 21:20:04.510 ,3,0,0.,12.0,0.,12.0,0.,12.0,0.,12.0
1979-07-30 21:20:16.510 ,3,0,0.,12.0,0.,12.0,0.,12.0,0.,12.0
1979-07-30 21:20:28.510 ,3,0,0.,12.0,0.,12.0,0.,12.0,0.,12.0
1979-07-30 21:20:40.510 ,3,0,0.,12.0,0.,12.0,0.,12.0,0.,12.0
1979-07-30 21:20:52.510 ,2,0,0.,12.0,0.,12.0,0.,12.0,0.,12.0
1979-07-30 21:21:04.510 ,2,0,0.,12.0,0.,12.0,0.,12.0,0.,12.0
1979-07-30 21:21:16.510 ,2,0,0.,12.0,0.,12.0,0.,12.0,0.,12.0
1979-07-30 21:21:28.510 ,2,0,0.,12.0,0.,12.0,0.,12.0,0.,12.0
1979-07-30 21:21:40.510 ,1,0,0.,12.0,0.,12.0,0.,12.0,0.,12.0
1979-07-30 21:21:52.510 ,1,0,0.,12.0,0.,12.0,0.,12.0,0.,12.0
1979-07-30 21:22:04.510 ,1,0,0.,12.0,0.,12.0,0.,12.0,0.,12.0
1979-07-30 21:22:16.510 ,1,0,0.,12.0,0.,12.0,0.,12.0,0.,12.0
1979-07-30 21:22:28.510 ,0,0,0.,12.0,0.,12.0,0.,12.0,0.,12.0
1979-07-30 21:22:40.510 ,0,0,0.,12.0,0.,12.0,0.,12.0,0.,12.0
1979-07-30 21:22:52.510 ,0,0,0.,12.0,0.,12.0,0.,12.0,0.,12.0
1979-07-30 21:23:04.510 ,0,0,0.,12.0,0.,12.0,0.,12.0,0.,12.0
1979-07-30 21:23:16.510 ,0,0,0.,12.0,0.,12.0,0.,12.0,0.,12.0
1979-07-30 21:23:28.510 ,0,0,0.,12.0,0.,12.0,0.,12.0,0.,12.0
1979-07-30 21:23:40.510 ,0,0,0.,12.0,0.,12.0,0.,12.0,0.,12.0
1979-07-30 21:23:52.510 ,0,0,0.,12.0,0.,12.0,0.,12.0,0.,12.0
1979-07-30 21:24:04.510 ,1,0,0.,12.0,0.,12.0,0.,12.0,0.,12.0
1979-07-30 21:24:16.510 ,1,0,0.,12.0,0.,12.0,0.,12.0,0.,12.0
1979-07-30 21:24:28.510 ,1,0,0.,12.0,0.,12.0,0.,12.0,0.,12.0
1979-07-30 21:24:40.510 ,1,0,0.,12.0,0.,12.0,0.,12.0,0.,12.0
1979-07-30 21:24:52.510 ,2,0,0.,12.0,0.,12.0,0.,12.0,0.,12.0
1979-07-30 21:25:04.510 ,2,0,0.,12.0,0.,12.0,0.,12.0,0.,12.0
1979-07-30 21:25:16.510 ,2,0,0.,12.0,0.,12.0,0.,12.0,0.,12.0
1979-07-30 21:25:28.510 ,2,0,0.,12.0,0.,12.0,0.,12.0,0.,12.0
1979-07-30 21:25:40.510 ,3,0,0.,12.0,0.,12.0,0.,12.0,0.,12.0
1979-07-30 21:25:52.510 ,3,0,0.,12.0,0.,12.0,0.,12.0,0.,12.0
1979-07-30 21:26:04.510 ,3,0,0.,12.0,0.,12.0,0.,12.0,0.,12.0
1979-07-30 21:26:16.510 ,3,0,0.,12.0,0.,12.0,0.,12.0,0.,12.0
1979-07-30 21:26:28.510 ,4,0,0.,12.0,0.,12.0,0.,12.0,0.,12.0
1979-07-30 21:26:40.510 ,4,0,0.,12.0,0.,12.0,0.,12.0,0.,12.0
1979-07-30 21:26:52.510 ,4,0,0.,12.0,0.,12.0,0.,12.0,0.,12.0
1979-07-30 21:27:04.510 ,4,0,0.,12.0,0.,12.0,0.,12.0,0.,12.0
1979-07-30 21:27:16.510 ,5,0,0.,12.0,0.,12.0,0.,12.0,0.,12.0
1979-07-30 21:27:28.510 ,5,0,0.,12.0,0.,12.0,0.,12.0,0.,12.0
1979-07-30 21:27:40.510 ,5,0,0.,12.0,0.,12.0,0.,12.0,0.,12.0
1979-07-30 21:27:52.510 ,5,0,0.,12.0,0.,12.0,0.,12.0,0.,12.0
1979-07-30 21:28:04.510 ,6,0,0.,12.0,0.,12.0,0.,12.0,0.,12.0
1979-07-30 21:28:16.510 ,6,0,0.,12.0,0.,12.0,0.,12.0,0.,12.0
1979-07-30 21:28:28.510 ,6,0,0.,12.0,0.,12.0,0.,12.0,0.,12.0
1979-07-30 21:28:40.510 ,6,0,0.,12.0,0.,12.0,0.,12.0,0.,12.0
1979-07-30 21:28:52.510 ,7,0,0.,12.0,0.,12.0,0.,12.0,0.,12.0
1979-07-30 21:29:04.510 ,7,0,0.,12.0,0.,12.0,0.,12.0,0.,12.0
1979-07-30 21:29:16.510 ,7,0,0.,12.0,0.,12.0,0.,12.0,0.,12.0
1979-07-30 21:29:28.510 ,7,0,0.,12.0,0.,12.0,0.,12.0,0.,12.0
1979-07-30 21:29:40.510 ,7,0,0.,12.0,0.,12.0,0.,12.0,0.,12.0
1979-07-30 21:29:52.510 ,7,0,0.,12.0,0.,12.0,0.,12.0,0.,12.0
1979-07-30 21:30:04.510 ,7,0,0.,12.0,0.,12.0,0.,12.0,0.,12.0
1979-07-30 21:30:16.510 ,7,0,0.,12.0,0.,12.0,0.,12.0,0.,12.0
1979-07-30 21:30:28.510 ,6,0,0.,12.0,0.,12.0,0.,12.0,0.,12.0
1979-07-30 21:30:40.510 ,6,0,0.,12.0,0.,12.0,0.,12.0,0.,12.0
1979-07-30 21:30:52.510 ,6,0,0.,12.0,0.,12.0,0.,12.0,0.,12.0
1979-07-30 21:31:04.510 ,6,0,0.,12.0,0.,12.0,0.,12.0,0.,12.0
1979-07-30 21:31:16.510 ,5,0,0.,12.0,0.,12.0,0.,12.0,0.,12.0
1979-07-30 21:31:28.510 ,5,0,0.,12.0,0.,12.0,0.,12.0,0.,12.0
1979-07-30 21:31:40.510 ,5,0,0.,12.0,0.,12.0,0.,12.0,0.,12.0
1979-07-30 21:31:52.510 ,5,0,0.,12.0,0.,12.0,0.,12.0,0.,12.0
1979-07-30 21:32:04.510 ,4,0,0.,12.0,0.,12.0,0.,12.0,0.,12.0
1979-07-30 21:32:16.510 ,4,0,0.,12.0,0.,12.0,0.,12.0,0.,12.0
1979-07-30 21:32:28.510 ,4,0,0.,12.0,0.,12.0,0.,12.0,0.,12.0
1979-07-30 21:32:40.510 ,4,0,0.,12.0,0.,12.0,0.,12.0,0.,12.0
1979-07-30 21:32:52.510 ,3,0,0.,12.0,0.,12.0,0.,12.0,0.,12.0
1979-07-30 21:33:04.510 ,3,0,0.,12.0,0.,12.0,0.,12.0,0.,12.0
1979-07-30 21:33:16.510 ,3,0,0.,12.0,0.,12.0,0.,12.0,0.,12.0
1979-07-30 21:33:28.510 ,3,0,0.,12.0,0.,12.0,0.,12.0,0.,12.0
1979-07-30 21:33:40.510 ,2,0,0.,12.0,0.,12.0,0.,12.0,0.,12.0
1979-07-30 21:33:52.510 ,2,0,0.,12.0,0.,12.0,0.,12.0,0.,12.0
1979-07-30 21:34:04.510 ,2,0,0.,12.0,0.,12.0,0.,12.0,0.,12.0
1979-07-30 21:34:16.510 ,2,0,0.,12.0,0.,12.0,0.,12.0,0.,12.0
1979-07-30 21:34:28.510 ,1,0,0.,12.0,0.,12.0,0.,12.0,0.,12.0
1979-07-30 21:34:40.510 ,1,0,0.,12.0,0.,12.0,0.,12.0,0.,12.0
1979-07-30 21:34:52.510 ,1,0,0.,12.0,0.,12.0,0.,12.0,0.,12.0
1979-07-30 21:35:04.510 ,1,0,0.,12.0,0.,12.0,0.,12.0,0.,12.0
1979-07-30 21:35:16.510 ,0,0,0.,12.0,0.,12.0,0.,12.0,0.,12.0
1979-07-30 21:35:28.510 ,0,0,0.,12.0,0.,12.0,0.,12.0,0.,12.0
1979-07-30 21:35:40.510 ,0,0,0.,12.0,0.,12.0,0.,12.0,0.,12.0
1979-07-30 21:35:52.510 ,0,0,0.,12.0,0.,12.0,0.,12.0,0.,12.0
1979-07-30 21:36:04.510 ,0,0,0.,12.0,0.,12.0,0.,12.0,0.,12.0
1979-07-30 21:36:16.510 ,0,0,0.,12.0,0.,12.0,0.,12.0,0.,12.0
1979-07-30 21:36:28.510 ,0,0,0.,12.0,0.,12.0,0.,12.0,0.,12.0
1979-07-30 21:36:40.510 ,0,0,0.,12.0,0.,12.0,0.,12.0,0.,12.0
1979-07-30 21:36:52.510 ,1,0,0.,12.0,0.,12.0,0.,12.0,0.,12.0
1979-07-30 21:37:04.510 ,1,0,0.,12.0,0.,12.0,0.,12.0,0.,12.0
1979-07-30 21:37:16.510 ,1,0,0.,12.0,0.,12.0,0.,12.0,0.,12.0
1979-07-30 21:37:28.510 ,1,0,0.,12.0,0.,12.0,0.,12.0,0.,12.0
1979-07-30 21:37:40.510 ,2,0,0.,12.0,0.,12.0,0.,12.0,0.,12.0
1979-07-30 21:37:52.510 ,2,0,0.,12.0,0.,12.0,0.,12.0,0.,12.0
1979-07-30 21:38:04.510 ,2,0,0.,12.0,0.,12.0,0.,12.0,0.,12.0
1979-07-30 21:38:16.510 ,2,0,0.,12.0,0.,12.0,0.,12.0,0.,12.0
1979-07-30 21:38:28.510 ,3,0,0.,12.0,0.,12.0,0.,12.0,0.,12.0
1979-07-30 21:38:40.510 ,3,0,0.,12.0,0.,12.0,0.,12.0,0.,12.0
1979-07-30 21:38:52.510 ,3,0,0.,12.0,0.,12.0,0.,12.0,0.,12.0
1979-07-30 21:39:04.510 ,3,0,0.,12.0,0.,12.0,0.,12.0,0.,12.0
1979-07-30 21:39:16.510 ,4,0,0.,12.0,0.,12.0,0.,12.0,0.,12.0
1979-07-30 21:39:28.510 ,4,0,0.,12.0,0.,12.0,0.,12.0,0.,12.0
1979-07-30 21:39:40.510 ,4,0,0.,12.0,0.,12.0,0.,12.0,0.,12.0
1979-07-30 21:39:52.510 ,4,0,0.,12.0,0.,12.0,0.,12.0,0.,12.0
1979-07-30 21:40:04.510 ,5,0,0.,12.0,0.,12.0,0.,12.0,0.,12.0
1979-07-30 21:40:16.510 ,5,0,0.,12.0,0.,12.0,0.,12.0,0.,12.0
1979-07-30 21:40:28.510 ,5,0,1.,12.0,0.,12.0,0.,12.0,0.,12.0
1979-07-30 21:40:40.510 ,5,0,0.,12.0,0.,12.0,0.,12.0,0.,12.0
1979-07-30 21:40:52.510 ,6,0,0.,12.0,0.,12.0,0.,12.0,0.,12.0
1979-07-30 21:41:04.510 ,6,0,0.,12.0,0.,12.0,0.,12.0,0.,12.0
1979-07-30 21:41:16.510 ,6,0,0.,12.0,0.,12.0,0.,12.0,0.,12.0
1979-07-30 21:41:28.510 ,6,0,0.,12.0,0.,12.0,0.,12.0,0.,12.0
1979-07-30 21:41:40.510 ,7,0,0.,12.0,0.,12.0,0.,12.0,0.,12.0
1979-07-30 21:41:52.510 ,7,0,0.,12.0,0.,12.0,0.,12.0,0.,12.0
1979-07-30 21:42:04.510 ,7,0,0.,12.0,0.,12.0,0.,12.0,0.,12.0
1979-07-30 21:42:16.510 ,7,0,0.,12.0,0.,12.0,0.,12.0,0.,12.0
1979-07-30 21:42:28.510 ,7,0,0.,12.0,0.,12.0,0.,12.0,0.,12.0
1979-07-30 21:42:40.510 ,7,0,0.,12.0,0.,12.0,0.,12.0,0.,12.0
1979-07-30 21:42:52.510 ,7,0,0.,12.0,0.,12.0,0.,12.0,0.,12.0
1979-07-30 21:43:04.510 ,7,0,0.,12.0,0.,12.0,0.,12.0,0.,12.0
1979-07-30 21:43:16.510 ,6,0,0.,12.0,0.,12.0,0.,12.0,0.,12.0
1979-07-30 21:43:28.510 ,6,0,0.,12.0,0.,12.0,0.,12.0,0.,12.0
1979-07-30 21:43:40.510 ,6,0,0.,12.0,0.,12.0,0.,12.0,0.,12.0
1979-07-30 21:43:52.510 ,6,0,0.,12.0,0.,12.0,0.,12.0,0.,12.0
1979-07-30 21:44:04.510 ,5,0,0.,12.0,0.,12.0,0.,12.0,0.,12.0
1979-07-30 21:44:16.510 ,5,0,0.,12.0,0.,12.0,0.,12.0,0.,12.0
1979-07-30 21:44:28.510 ,5,0,0.,12.0,0.,12.0,0.,12.0,0.,12.0
1979-07-30 21:44:40.510 ,5,0,0.,12.0,0.,12.0,0.,12.0,0.,12.0
1979-07-30 21:44:52.510 ,4,0,0.,12.0,0.,12.0,0.,12.0,0.,12.0
1979-07-30 21:45:04.510 ,4,0,0.,12.0,0.,12.0,0.,12.0,0.,12.0
1979-07-30 21:45:16.510 ,4,0,0.,12.0,0.,12.0,0.,12.0,0.,12.0
1979-07-30 21:45:28.510 ,4,0,0.,12.0,0.,12.0,0.,12.0,0.,12.0
1979-07-30 21:45:40.510 ,3,0,0.,12.0,0.,12.0,0.,12.0,0.,12.0
1979-07-30 21:45:52.510 ,3,0,0.,12.0,0.,12.0,0.,12.0,0.,12.0
1979-07-30 21:46:04.510 ,3,0,0.,12.0,0.,12.0,0.,12.0,0.,12.0
1979-07-30 21:46:16.510 ,3,0,0.,12.0,0.,12.0,0.,12.0,0.,12.0
1979-07-30 21:46:28.510 ,2,0,0.,12.0,0.,12.0,0.,12.0,0.,12.0
1979-07-30 21:46:40.510 ,2,0,0.,12.0,0.,12.0,0.,12.0,0.,12.0
1979-07-30 21:46:52.510 ,2,0,0.,12.0,0.,12.0,0.,12.0,0.,12.0
1979-07-30 21:47:04.510 ,2,0,0.,12.0,0.,12.0,0.,12.0,0.,12.0
1979-07-30 21:47:16.510 ,1,0,0.,12.0,0.,12.0,0.,12.0,0.,12.0
1979-07-30 21:47:28.510 ,1,0,0.,12.0,0.,12.0,0.,12.0,0.,12.0
1979-07-30 21:47:40.510 ,1,0,0.,12.0,0.,12.0,0.,12.0,0.,12.0
1979-07-30 21:47:52.510 ,1,0,0.,12.0,0.,12.0,0.,12.0,0.,12.0
1979-07-30 21:48:04.510 ,0,0,0.,12.0,0.,12.0,0.,12.0,0.,12.0
1979-07-30 21:48:16.510 ,0,0,0.,12.0,0.,12.0,0.,12.0,0.,12.0
1979-07-30 21:48:28.510 ,0,0,0.,12.0,0.,12.0,0.,12.0,0.,12.0
1979-07-30 21:48:40.510 ,0,0,0.,12.0,0.,12.0,0.,12.0,0.,12.0
1979-07-30 21:48:52.510 ,0,0,0.,12.0,0.,12.0,0.,12.0,0.,12.0
1979-07-30 21:49:04.510 ,0,0,0.,12.0,0.,12.0,0.,12.0,0.,12.0
1979-07-30 21:49:16.510 ,0,0,0.,12.0,0.,12.0,0.,12.0,0.,12.0
1979-07-30 21:49:28.510 ,0,0,0.,12.0,0.,12.0,0.,12.0,0.,12.0
1979-07-30 21:49:40.510 ,1,0,0.,12.0,0.,12.0,0.,12.0,0.,12.0
1979-07-30 21:49:52.510 ,1,0,0.,12.0,0.,12.0,0.,12.0,0.,12.0
1979-07-30 21:50:04.510 ,1,0,0.,12.0,0.,12.0,0.,12.0,0.,12.0
1979-07-30 21:50:16.510 ,1,0,0.,12.0,0.,12.0,0.,12.0,0.,12.0
1979-07-30 21:50:28.510 ,2,0,0.,12.0,0.,12.0,0.,12.0,0.,12.0
1979-07-30 21:50:40.510 ,2,0,0.,12.0,0.,12.0,0.,12.0,0.,12.0
1979-07-30 21:50:52.510 ,2,0,0.,12.0,0.,12.0,0.,12.0,0.,12.0
1979-07-30 21:51:04.510 ,2,0,0.,12.0,0.,12.0,0.,12.0,0.,12.0
1979-07-30 21:51:16.510 ,3,0,0.,12.0,0.,12.0,0.,12.0,0.,12.0
1979-07-30 21:51:28.510 ,3,0,0.,12.0,0.,12.0,0.,12.0,0.,12.0
1979-07-30 21:51:40.510 ,3,0,0.,12.0,0.,12.0,0.,12.0,0.,12.0
1979-07-30 21:51:52.510 ,3,0,0.,12.0,0.,12.0,0.,12.0,0.,12.0
1979-07-30 21:52:04.510 ,4,0,0.,12.0,0.,12.0,0.,12.0,0.,12.0
1979-07-30 21:52:16.510 ,4,0,0.,12.0,0.,12.0,0.,12.0,0.,12.0
1979-07-30 21:52:28.510 ,4,0,0.,12.0,0.,12.0,0.,12.0,0.,12.0
1979-07-30 21:52:40.510 ,4,0,0.,12.0,0.,12.0,0.,12.0,0.,12.0
1979-07-30 21:52:52.510 ,5,0,0.,12.0,0.,12.0,0.,12.0,0.,12.0
1979-07-30 21:53:04.510 ,5,0,0.,12.0,0.,12.0,0.,12.0,0.,12.0
1979-07-30 21:53:16.510 ,5,0,0.,12.0,0.,12.0,0.,12.0,0.,12.0
1979-07-30 21:53:28.510 ,5,0,0.,12.0,0.,12.0,0.,12.0,0.,12.0
1979-07-30 21:53:40.510 ,6,0,0.,12.0,0.,12.0,0.,12.0,0.,12.0
1979-07-30 21:53:52.510 ,6,0,0.,12.0,0.,12.0,0.,12.0,0.,12.0
1979-07-30 21:54:04.510 ,6,0,0.,12.0,0.,12.0,0.,12.0,0.,12.0
1979-07-30 21:54:16.510 ,6,0,0.,12.0,0.,12.0,0.,12.0,0.,12.0
1979-07-30 21:54:28.510 ,7,0,0.,12.0,0.,12.0,0.,12.0,0.,12.0
1979-07-30 21:54:40.510 ,7,0,0.,12.0,0.,12.0,0.,12.0,0.,12.0
1979-07-30 21:54:52.510 ,7,0,0.,12.0,0.,12.0,0.,12.0,0.,12.0
1979-07-30 21:55:04.510 ,7,0,0.,12.0,0.,12.0,0.,12.0,0.,12.0
1979-07-30 21:55:16.510 ,3,1,0.,12.0,0.,12.0,0.,12.0,0.,12.0
1979-07-30 21:55:28.510 ,3,1,0.,12.0,0.,12.0,0.,12.0,0.,12.0
1979-07-30 21:55:40.510 ,0,1,0.,12.0,0.,12.0,0.,12.0,0.,12.0
1979-07-30 21:55:52.510 ,0,1,0.,12.0,0.,12.0,0.,12.0,0.,12.0
1979-07-30 21:56:04.510 ,4,1,0.,12.0,0.,12.0,0.,12.0,0.,12.0
1979-07-30 21:56:16.510 ,4,1,0.,12.0,0.,12.0,0.,12.0,0.,12.0
1979-07-30 21:56:28.510 ,7,1,0.,12.0,0.,12.0,0.,12.0,0.,12.0
1979-07-30 21:56:40.510 ,7,1,0.,12.0,0.,12.0,0.,12.0,0.,12.0
1979-07-30 21:56:52.510 ,3,1,0.,12.0,0.,12.0,0.,12.0,0.,12.0
1979-07-30 21:57:04.510 ,3,1,0.,12.0,0.,12.0,0.,12.0,0.,12.0
1979-07-30 21:57:16.510 ,0,1,0.,12.0,0.,12.0,0.,12.0,0.,12.0
1979-07-30 21:57:28.510 ,0,1,0.,12.0,0.,12.0,0.,12.0,0.,12.0
1979-07-30 21:57:40.510 ,4,1,0.,12.0,0.,12.0,0.,12.0,0.,12.0
1979-07-30 21:57:52.510 ,4,1,0.,12.0,0.,12.0,0.,12.0,0.,12.0
1979-07-30 21:58:04.510 ,7,1,0.,12.0,0.,12.0,0.,12.0,0.,12.0
1979-07-30 21:58:16.510 ,7,1,0.,12.0,0.,12.0,0.,12.0,0.,12.0
1979-07-30 21:58:28.510 ,3,1,0.,12.0,0.,12.0,0.,12.0,0.,12.0
1979-07-30 21:58:40.510 ,3,1,0.,12.0,0.,12.0,0.,12.0,0.,12.0
1979-07-30 21:58:52.510 ,0,1,0.,12.0,0.,12.0,0.,12.0,0.,12.0
1979-07-30 21:59:04.510 ,0,1,0.,12.0,0.,12.0,0.,12.0,0.,12.0
1979-07-30 21:59:16.510 ,4,1,0.,12.0,0.,12.0,0.,12.0,0.,12.0
1979-07-30 21:59:28.510 ,4,1,0.,12.0,0.,12.0,0.,12.0,0.,12.0
1979-07-30 21:59:40.510 ,7,1,0.,12.0,0.,12.0,0.,12.0,0.,12.0
1979-07-30 21:59:52.510 ,7,1,0.,12.0,0.,12.0,0.,12.0,0.,12.0
1979-07-30 22:00:04.510 ,3,1,0.,12.0,0.,12.0,0.,12.0,0.,12.0
1979-07-30 22:00:16.510 ,3,1,0.,12.0,0.,12.0,0.,12.0,0.,12.0
1979-07-30 22:00:28.510 ,0,1,0.,12.0,0.,12.0,0.,12.0,0.,12.0
1979-07-30 22:00:40.510 ,0,1,0.,12.0,0.,12.0,0.,12.0,0.,12.0
1979-07-30 22:00:52.510 ,4,1,0.,12.0,0.,12.0,0.,12.0,0.,12.0
1979-07-30 22:01:04.510 ,4,1,0.,12.0,0.,12.0,0.,12.0,0.,12.0
1979-07-30 22:01:16.510 ,7,1,0.,12.0,0.,12.0,0.,12.0,0.,12.0
1979-07-30 22:01:28.510 ,7,1,0.,12.0,0.,12.0,0.,12.0,0.,12.0
1979-07-30 22:01:40.510 ,3,1,0.,12.0,0.,12.0,0.,12.0,0.,12.0
1979-07-30 22:01:52.510 ,3,1,0.,12.0,0.,12.0,0.,12.0,0.,12.0
1979-07-30 22:02:04.510 ,0,1,0.,12.0,0.,12.0,0.,12.0,0.,12.0
1979-07-30 22:02:16.510 ,0,1,0.,12.0,0.,12.0,0.,12.0,0.,12.0
1979-07-30 22:02:28.510 ,4,1,0.,12.0,0.,12.0,0.,12.0,0.,12.0
1979-07-30 22:02:40.510 ,4,1,0.,12.0,0.,12.0,0.,12.0,0.,12.0
1979-07-30 22:02:52.510 ,7,1,0.,12.0,0.,12.0,0.,12.0,0.,12.0
1979-07-30 22:03:04.510 ,7,1,0.,12.0,0.,12.0,0.,12.0,0.,12.0
1979-07-30 22:03:16.510 ,3,1,0.,12.0,0.,12.0,0.,12.0,0.,12.0
1979-07-30 22:03:28.510 ,3,1,0.,12.0,0.,12.0,0.,12.0,0.,12.0
1979-07-30 22:03:40.510 ,0,1,0.,12.0,0.,12.0,0.,12.0,0.,12.0
1979-07-30 22:03:52.510 ,0,1,0.,12.0,0.,12.0,0.,12.0,0.,12.0
1979-07-30 22:04:04.510 ,4,1,0.,12.0,0.,12.0,0.,12.0,0.,12.0
1979-07-30 22:04:16.510 ,4,1,0.,12.0,0.,12.0,0.,12.0,0.,12.0
1979-07-30 22:04:28.510 ,7,1,0.,12.0,0.,12.0,0.,12.0,0.,12.0
1979-07-30 22:04:40.510 ,7,1,0.,12.0,0.,12.0,0.,12.0,0.,12.0
1979-07-30 22:04:52.510 ,3,1,0.,12.0,0.,12.0,0.,12.0,0.,12.0
1979-07-30 22:05:04.510 ,3,1,0.,12.0,0.,12.0,0.,12.0,0.,12.0
1979-07-30 22:05:16.510 ,0,1,0.,12.0,0.,12.0,0.,12.0,0.,12.0
1979-07-30 22:05:28.510 ,0,1,0.,12.0,0.,12.0,0.,12.0,0.,12.0
1979-07-30 22:05:40.510 ,0,0,0.,12.0,0.,12.0,0.,12.0,0.,12.0
1979-07-30 22:05:52.510 ,0,0,0.,12.0,0.,12.0,0.,12.0,0.,12.0
1979-07-30 22:06:04.510 ,0,0,0.,12.0,0.,12.0,0.,12.0,0.,12.0
1979-07-30 22:06:16.510 ,0,0,0.,12.0,0.,12.0,0.,12.0,0.,12.0
1979-07-30 22:06:28.510 ,5,0,0.,12.0,0.,12.0,0.,12.0,0.,12.0
1979-07-30 22:06:40.510 ,5,0,0.,12.0,0.,12.0,0.,12.0,0.,12.0
1979-07-30 22:06:52.510 ,5,0,0.,12.0,0.,12.0,0.,12.0,0.,12.0
1979-07-30 22:07:04.510 ,5,0,0.,12.0,0.,12.0,0.,12.0,0.,12.0
1979-07-30 22:07:16.510 ,4,0,0.,12.0,0.,12.0,0.,12.0,0.,12.0
1979-07-30 22:07:28.510 ,4,0,0.,12.0,0.,12.0,0.,12.0,0.,12.0
1979-07-30 22:07:40.510 ,4,0,0.,12.0,0.,12.0,0.,12.0,0.,12.0
1979-07-30 22:07:52.510 ,4,0,0.,12.0,0.,12.0,0.,12.0,0.,12.0
1979-07-30 22:08:04.510 ,3,0,0.,12.0,0.,12.0,0.,12.0,0.,12.0
1979-07-30 22:08:16.510 ,3,0,0.,12.0,0.,12.0,0.,12.0,0.,12.0
1979-07-30 22:08:28.510 ,3,0,0.,12.0,0.,12.0,0.,12.0,0.,12.0
1979-07-30 22:08:40.510 ,3,0,0.,12.0,0.,12.0,0.,12.0,0.,12.0
1979-07-30 22:08:52.510 ,2,0,0.,12.0,0.,12.0,0.,12.0,0.,12.0
1979-07-30 22:09:04.510 ,2,0,0.,12.0,0.,12.0,0.,12.0,0.,12.0
1979-07-30 22:09:16.510 ,2,0,0.,12.0,0.,12.0,0.,12.0,0.,12.0
1979-07-30 22:09:28.510 ,2,0,0.,12.0,0.,12.0,0.,12.0,0.,12.0
1979-07-30 22:09:40.510 ,1,0,0.,12.0,0.,12.0,0.,12.0,0.,12.0
1979-07-30 22:09:52.510 ,1,0,0.,12.0,0.,12.0,0.,12.0,0.,12.0
1979-07-30 22:10:04.510 ,1,0,0.,12.0,0.,12.0,0.,12.0,0.,12.0
1979-07-30 22:10:16.510 ,1,0,0.,12.0,0.,12.0,0.,12.0,0.,12.0
1979-07-30 22:10:28.510 ,0,0,0.,12.0,0.,12.0,0.,12.0,0.,12.0
1979-07-30 22:10:40.510 ,0,0,0.,12.0,0.,12.0,0.,12.0,0.,12.0
1979-07-30 22:10:52.510 ,0,0,0.,12.0,0.,12.0,0.,12.0,0.,12.0
1979-07-30 22:11:04.510 ,0,0,0.,12.0,0.,12.0,0.,12.0,0.,12.0
1979-07-30 22:11:16.510 ,0,0,0.,12.0,0.,12.0,0.,12.0,0.,12.0
1979-07-30 22:11:28.510 ,0,0,0.,12.0,0.,12.0,0.,12.0,0.,12.0
1979-07-30 22:11:40.510 ,0,0,0.,12.0,0.,12.0,0.,12.0,0.,12.0
1979-07-30 22:11:52.510 ,0,0,0.,12.0,0.,12.0,0.,12.0,0.,12.0
1979-07-30 22:12:04.510 ,1,0,0.,12.0,0.,12.0,0.,12.0,0.,12.0
1979-07-30 22:12:16.510 ,1,0,0.,12.0,0.,12.0,0.,12.0,0.,12.0
1979-07-30 22:12:28.510 ,1,0,0.,12.0,0.,12.0,0.,12.0,0.,12.0
1979-07-30 22:12:40.510 ,1,0,0.,12.0,0.,12.0,0.,12.0,0.,12.0
1979-07-30 22:12:52.510 ,2,0,0.,12.0,0.,12.0,0.,12.0,0.,12.0
1979-07-30 22:13:04.510 ,2,0,0.,12.0,0.,12.0,0.,12.0,0.,12.0
1979-07-30 22:13:16.510 ,2,0,0.,12.0,0.,12.0,0.,12.0,0.,12.0
1979-07-30 22:13:28.510 ,2,0,0.,12.0,0.,12.0,0.,12.0,0.,12.0
1979-07-30 22:13:40.510 ,3,0,0.,12.0,0.,12.0,0.,12.0,0.,12.0
1979-07-30 22:13:52.510 ,3,0,0.,12.0,0.,12.0,0.,12.0,0.,12.0
1979-07-30 22:14:04.510 ,3,0,0.,12.0,0.,12.0,0.,12.0,0.,12.0
1979-07-30 22:14:16.510 ,3,0,0.,12.0,0.,12.0,0.,12.0,0.,12.0
1979-07-30 22:14:28.510 ,4,0,0.,12.0,0.,12.0,0.,12.0,0.,12.0
1979-07-30 22:14:40.510 ,4,0,0.,12.0,0.,12.0,0.,12.0,0.,12.0
1979-07-30 22:14:52.510 ,4,0,0.,12.0,0.,12.0,0.,12.0,0.,12.0
1979-07-30 22:15:04.510 ,4,0,0.,12.0,0.,12.0,0.,12.0,0.,12.0
1979-07-30 22:15:16.510 ,5,0,0.,12.0,0.,12.0,0.,12.0,0.,12.0
1979-07-30 22:15:28.510 ,5,0,0.,12.0,0.,12.0,0.,12.0,0.,12.0
1979-07-30 22:15:40.510 ,5,0,0.,12.0,0.,12.0,0.,12.0,0.,12.0
1979-07-30 22:15:52.510 ,5,0,0.,12.0,0.,12.0,0.,12.0,0.,12.0
1979-07-30 22:16:04.510 ,6,0,0.,12.0,0.,12.0,0.,12.0,0.,12.0
1979-07-30 22:16:16.510 ,6,0,0.,12.0,0.,12.0,0.,12.0,0.,12.0
1979-07-30 22:16:28.510 ,6,0,0.,12.0,0.,12.0,0.,12.0,0.,12.0
1979-07-30 22:16:40.510 ,6,0,0.,12.0,0.,12.0,0.,12.0,0.,12.0
1979-07-30 22:16:52.510 ,7,0,0.,12.0,0.,12.0,0.,12.0,0.,12.0
1979-07-30 22:17:04.510 ,7,0,0.,12.0,0.,12.0,0.,12.0,0.,12.0
1979-07-30 22:17:16.510 ,7,0,0.,12.0,0.,12.0,0.,12.0,0.,12.0
1979-07-30 22:17:28.510 ,7,0,0.,12.0,0.,12.0,0.,12.0,0.,12.0
1979-07-30 22:17:40.510 ,7,0,0.,12.0,0.,12.0,0.,12.0,0.,12.0
1979-07-30 22:17:52.510 ,7,0,0.,12.0,0.,12.0,0.,12.0,0.,12.0
1979-07-30 22:18:04.510 ,7,0,0.,12.0,0.,12.0,0.,12.0,0.,12.0
1979-07-30 22:18:16.510 ,7,0,0.,12.0,0.,12.0,0.,12.0,0.,12.0
1979-07-30 22:18:28.510 ,6,0,0.,12.0,0.,12.0,0.,12.0,0.,12.0
1979-07-30 22:18:40.510 ,6,0,1.,12.0,0.,12.0,0.,12.0,0.,12.0
1979-07-30 22:18:52.510 ,6,0,0.,12.0,0.,12.0,0.,12.0,0.,12.0
1979-07-30 22:19:04.510 ,6,0,0.,12.0,0.,12.0,0.,12.0,0.,12.0
1979-07-30 22:19:16.510 ,5,0,0.,12.0,0.,12.0,0.,12.0,0.,12.0
1979-07-30 22:19:28.510 ,5,0,0.,12.0,0.,12.0,0.,12.0,0.,12.0
1979-07-30 22:19:40.510 ,5,0,0.,12.0,0.,12.0,0.,12.0,0.,12.0